QPF
0.12 0.05 0.02 0.02 0.03 0.03 0.04 0.05 0.06 0.06 0.05 0.05 0.05 0.05 0.04 0.03 0.03 0.02 0.02 0.02 0.02 0.02 0.02 0.02 0.03 0.02 0.02 0.02 0.01 0.01 0.01 0.01 0.01 0.00 0.00 0.01 0.00 0.01 0.01 0.01 0.08 0.14 0.06
0.14 0.06 0.03 0.02 0.02 0.04 0.04 0.04 0.06 0.07 0.06 0.07 0.08 0.07 0.05 0.05 0.04 0.04 0.03 0.03 0.03 0.03 0.02 0.02 0.03 0.03 0.03 0.02 0.02 0.01 0.01 0.01 0.01 0.00 0.01 0.03 0.02 0.01 0.01 0.01 0.07 0.11 0.03
0.09 0.05 0.02 0.02 0.03 0.04 0.04 0.04 0.04 0.06 0.06 0.07 0.08 0.09 0.08 0.07 0.06 0.06 0.05 0.05 0.05 0.04 0.03 0.02 0.02 0.03 0.03 0.02 0.01 0.01 0.02 0.02 0.01 0.01 0.03 0.13 0.11 0.02 0.01 0.01 0.02 0.03 0.02
0.04 0.04 0.04 0.04 0.04 0.03 0.03 0.03 0.04 0.04 0.05 0.06 0.07 0.07 0.07 0.09 0.09 0.08 0.07 0.07 0.07 0.06 0.04 0.04 0.03 0.03 0.03 0.02 0.02 0.01 0.01 0.01 0.01 0.02 0.07 0.15 0.16 0.07 0.02 0.01 0.02 0.02 0.02
0.04 0.03 0.04 0.04 0.05 0.04 0.04 0.05 0.07 0.07 0.07 0.07 0.07 0.07 0.08 0.08 0.08 0.09 0.08 0.07 0.07 0.06 0.05 0.05 0.05 0.04 0.04 0.04 0.03 0.02 0.01 0.01 0.02 0.04 0.10 0.12 0.19 0.09 0.02 0.02 0.03 0.03 0.03
0.02 0.02 0.03 0.03 0.04 0.04 0.05 0.05 0.07 0.08 0.08 0.09 0.08 0.07 0.07 0.07 0.07 0.08 0.08 0.07 0.07 0.07 0.06 0.06 0.06 0.06 0.05 0.05 0.04 0.02 0.02 0.02 0.03 0.10 0.13 0.15 0.18 0.08 0.02 0.01 0.02 0.03 0.04
0.02 0.02 0.02 0.02 0.02 0.02 0.03 0.06 0.08 0.08 0.09 0.10 0.09 0.08 0.06 0.06 0.07 0.07 0.07 0.07 0.07 0.07 0.08 0.08 0.07 0.08 0.06 0.06 0.05 0.03 0.02 0.02 0.04 0.09 0.10 0.15 0.15 0.05 0.02 0.01 0.01 0.03 0.05
0.02 0.01 0.01 0.01 0.01 0.01 0.02 0.04 0.04 0.05 0.06 0.07 0.07 0.06 0.06 0.06 0.07 0.07 0.07 0.07 0.06 0.06 0.07 0.08 0.09 0.08 0.08 0.07 0.06 0.05 0.03 0.02 0.03 0.05 0.07 0.12 0.10 0.04 0.01 0.01 0.02 0.03 0.03
0.00 0.00 0.00 0.01 0.01 0.01 0.01 0.01 0.01 0.02 0.03 0.04 0.07 0.09 0.08 0.08 0.07 0.08 0.09 0.08 0.06 0.05 0.06 0.06 0.08 0.08 0.08 0.07 0.07 0.06 0.04 0.03 0.02 0.04 0.04 0.10 0.07 0.03 0.02 0.01 0.02 0.03 0.04
0.02 0.00 0.01 0.01 0.01 0.01 0.01 0.00 0.00 0.01 0.01 0.02 0.03 0.04 0.04 0.06 0.07 0.08 0.08 0.07 0.06 0.06 0.07 0.06 0.07 0.07 0.08 0.07 0.07 0.06 0.05 0.03 0.02 0.02 0.05 0.08 0.04 0.02 0.01 0.02 0.03 0.03 0.04
0.02 0.00 0.00 0.00 0.00 0.01 0.00 0.00 0.00 0.00 0.01 0.01 0.01 0.02 0.02 0.04 0.04 0.05 0.05 0.06 0.06 0.07 0.06 0.06 0.07 0.07 0.08 0.07 0.06 0.06 0.04 0.02 0.03 0.03 0.06 0.05 0.04 0.02 0.01 0.02 0.03 0.04 0.03
0.00 0.00 0.00 0.00 0.00 0.00 0.00 0.00 0.00 0.00 0.00 0.01 0.01 0.01 0.02 0.02 0.02 0.03 0.04 0.05 0.05 0.05 0.05 0.05 0.06 0.06 0.06 0.06 0.09 0.07 0.03 0.02 0.02 0.03 0.04 0.04 0.03 0.02 0.01 0.02 0.02 0.03 0.03
0.00 0.00 0.00 0.00 0.00 0.00 0.00 0.00 0.00 0.00 0.00 0.00 0.00 0.00 0.00 0.01 0.01 0.02 0.04 0.05 0.06 0.04 0.04 0.05 0.05 0.05 0.05 0.08 0.11 0.09 0.06 0.05 0.04 0.04 0.07 0.06 0.03 0.02 0.01 0.02 0.03 0.03 0.04
0.00 0.00 0.00 0.00 0.00 0.00 0.00 0.00 0.00 0.00 0.00 0.00 0.00 0.00 0.01 0.01 0.01 0.02 0.03 0.04 0.06 0.07 0.07 0.06 0.08 0.08 0.07 0.08 0.08 0.10 0.07 0.05 0.06 0.07 0.09 0.06 0.03 0.01 0.02 0.02 0.02 0.03 0.05
0.00 0.00 0.00 0.00 0.00 0.00 0.00 0.00 0.00 0.00 0.00 0.00 0.00 0.00 0.00 0.01 0.01 0.01 0.01 0.02 0.04 0.04 0.06 0.07 0.07 0.08 0.08 0.07 0.07 0.07 0.09 0.07 0.07 0.08 0.09 0.06 0.02 0.02 0.02 0.02 0.02 0.03 0.05
0.00 0.00 0.00 0.00 0.00 0.00 0.00 0.00 0.00 0.00 0.00 0.00 0.00 0.00 0.01 0.01 0.01 0.01 0.02 0.03 0.03 0.03 0.03 0.04 0.04 0.06 0.08 0.11 0.10 0.07 0.06 0.07 0.07 0.07 0.08 0.06 0.03 0.02 0.02 0.02 0.02 0.04 0.06
0.00 0.00 0.00 0.00 0.00 0.00 0.00 0.00 0.00 0.00 0.00 0.00 0.01 0.01 0.01 0.01 0.01 0.02 0.03 0.03 0.04 0.03 0.03 0.03 0.04 0.08 0.08 0.09 0.10 0.09 0.06 0.04 0.04 0.05 0.07 0.08 0.05 0.03 0.01 0.02 0.02 0.03 0.06
0.00 0.00 0.00 0.00 0.00 0.00 0.00 0.00 0.00 0.00 0.00 0.01 0.01 0.01 0.01 0.01 0.01 0.02 0.03 0.03 0.03 0.03 0.04 0.04 0.05 0.07 0.09 0.09 0.10 0.10 0.06 0.05 0.04 0.04 0.06 0.07 0.07 0.05 0.04 0.02 0.01 0.02 0.04
0.00 0.00 0.00 0.00 0.00 0.00 0.00 0.00 0.00 0.01 0.01 0.01 0.02 0.02 0.02 0.01 0.01 0.03 0.05 0.04 0.04 0.03 0.04 0.04 0.06 0.07 0.07 0.10 0.11 0.10 0.08 0.08 0.06 0.04 0.05 0.06 0.06 0.05 0.07 0.04 0.01 0.01 0.02
0.00 0.00 0.00 0.00 0.00 0.00 0.00 0.00 0.00 0.01 0.01 0.02 0.02 0.01 0.01 0.01 0.01 0.02 0.04 0.04 0.05 0.05 0.05 0.05 0.07 0.07 0.08 0.09 0.09 0.10 0.09 0.06 0.07 0.05 0.04 0.05 0.06 0.07 0.09 0.09 0.04 0.01 0.01
0.00 0.00 0.00 0.00 0.00 0.00 0.00 0.00 0.00 0.00 0.01 0.01 0.01 0.00 0.01 0.01 0.01 0.02 0.03 0.04 0.05 0.05 0.06 0.05 0.07 0.07 0.08 0.11 0.12 0.12 0.10 0.06 0.06 0.06 0.05 0.05 0.06 0.08 0.10 0.14 0.11 0.07 0.03
0.00 0.00 0.00 0.00 0.00 0.00 0.00 0.01 0.01 0.00 0.01 0.01 0.01 0.01 0.01 0.01 0.02 0.04 0.05 0.06 0.06 0.06 0.06 0.07 0.08 0.08 0.08 0.10 0.11 0.12 0.09 0.08 0.07 0.05 0.05 0.05 0.06 0.08 0.11 0.13 0.11 0.08 0.06
0.00 0.00 0.00 0.00 0.00 0.00 0.00 0.01 0.01 0.01 0.01 0.02 0.02 0.02 0.03 0.03 0.03 0.04 0.05 0.06 0.07 0.07 0.06 0.07 0.07 0.07 0.08 0.10 0.12 0.12 0.12 0.11 0.11 0.09 0.07 0.05 0.07 0.08 0.11 0.13 0.13 0.11 0.08
0.00 0.00 0.00 0.00 0.00 0.00 0.00 0.00 0.00 0.01 0.02 0.03 0.03 0.04 0.04 0.05 0.05 0.06 0.05 0.05 0.06 0.06 0.06 0.05 0.06 0.08 0.08 0.10 0.11 0.10 0.11 0.12 0.13 0.13 0.11 0.09 0.08 0.07 0.08 0.09 0.12 0.15 0.12
0.00 0.00 0.00 0.00 0.00 0.00 0.00 0.00 0.00 0.01 0.01 0.03 0.03 0.02 0.02 0.03 0.04 0.05 0.05 0.06 0.06 0.06 0.04 0.05 0.06 0.08 0.08 0.09 0.11 0.11 0.08 0.08 0.09 0.11 0.12 0.11 0.11 0.09 0.09 0.09 0.10 0.17 0.16
0.00 0.00 0.00 0.00 0.00 0.00 0.00 0.00 0.00 0.00 0.00 0.01 0.01 0.01 0.01 0.02 0.03 0.04 0.04 0.05 0.06 0.06 0.05 0.05 0.06 0.08 0.08 0.08 0.10 0.10 0.08 0.08 0.08 0.09 0.09 0.09 0.11 0.10 0.10 0.08 0.07 0.11 0.16
MSLP
1010.16 1009.89 1009.69 1009.64 1009.75 1009.98 1010.29 1010.59 1010.82 1010.95 1010.98 1010.96 1010.93 1010.95 1011.04 1011.22 1011.47 1011.73 1011.96 1012.13 1012.22 1012.25 1012.23 1012.20 1012.17 1012.16 1012.17 1012.18 1012.17 1012.14 1012.08 1012.00 1011.91 1011.83 1011.78 1011.76 1011.77 1011.81 1011.86 1011.93 1011.98 1011.98 1011.93
1010.36 1010.06 1009.86 1009.82 1009.94 1010.20 1010.51 1010.81 1011.03 1011.14 1011.15 1011.11 1011.07 1011.08 1011.18 1011.35 1011.59 1011.83 1012.05 1012.20 1012.28 1012.31 1012.29 1012.26 1012.25 1012.25 1012.26 1012.27 1012.26 1012.23 1012.17 1012.10 1012.02 1011.95 1011.91 1011.90 1011.92 1011.97 1012.02 1012.08 1012.13 1012.15 1012.12
1010.47 1010.16 1009.97 1009.95 1010.10 1010.38 1010.70 1011.00 1011.21 1011.31 1011.31 1011.26 1011.21 1011.22 1011.31 1011.47 1011.68 1011.89 1012.07 1012.19 1012.26 1012.27 1012.26 1012.25 1012.25 1012.27 1012.30 1012.32 1012.31 1012.28 1012.21 1012.14 1012.07 1012.02 1011.99 1012.00 1012.04 1012.09 1012.15 1012.21 1012.27 1012.31 1012.32
1010.47 1010.18 1010.02 1010.04 1010.23 1010.52 1010.86 1011.15 1011.35 1011.44 1011.43 1011.38 1011.34 1011.35 1011.42 1011.55 1011.73 1011.90 1012.03 1012.12 1012.17 1012.18 1012.18 1012.20 1012.24 1012.29 1012.33 1012.36 1012.35 1012.31 1012.23 1012.15 1012.08 1012.03 1012.02 1012.05 1012.10 1012.16 1012.23 1012.30 1012.37 1012.43 1012.49
1010.39 1010.14 1010.03 1010.10 1010.32 1010.63 1010.97 1011.25 1011.43 1011.51 1011.50 1011.45 1011.41 1011.42 1011.48 1011.60 1011.73 1011.86 1011.96 1012.02 1012.04 1012.06 1012.09 1012.15 1012.23 1012.31 1012.38 1012.41 1012.40 1012.33 1012.23 1012.13 1012.05 1012.00 1012.00 1012.04 1012.11 1012.19 1012.27 1012.34 1012.42 1012.51 1012.61
1010.25 1010.06 1010.02 1010.14 1010.39 1010.71 1011.03 1011.29 1011.44 1011.50 1011.48 1011.44 1011.41 1011.43 1011.49 1011.59 1011.69 1011.79 1011.85 1011.88 1011.91 1011.94 1012.01 1012.11 1012.23 1012.35 1012.44 1012.48 1012.44 1012.35 1012.23 1012.09 1011.99 1011.94 1011.94 1012.00 1012.08 1012.17 1012.27 1012.35 1012.44 1012.54 1012.67
1010.11 1009.99 1010.01 1010.19 1010.46 1010.77 1011.06 1011.27 1011.39 1011.41 1011.38 1011.34 1011.33 1011.36 1011.43 1011.52 1011.60 1011.67 1011.71 1011.73 1011.75 1011.81 1011.91 1012.05 1012.22 1012.38 1012.49 1012.52 1012.47 1012.35 1012.19 1012.03 1011.91 1011.85 1011.86 1011.92 1012.03 1012.14 1012.24 1012.34 1012.43 1012.53 1012.67
1010.01 1009.96 1010.05 1010.26 1010.54 1010.82 1011.06 1011.21 1011.27 1011.26 1011.22 1011.18 1011.18 1011.23 1011.31 1011.40 1011.47 1011.52 1011.53 1011.54 1011.57 1011.64 1011.78 1011.96 1012.17 1012.36 1012.48 1012.52 1012.46 1012.31 1012.13 1011.94 1011.80 1011.74 1011.76 1011.84 1011.96 1012.09 1012.22 1012.32 1012.41 1012.50 1012.63
1009.97 1009.99 1010.13 1010.36 1010.63 1010.88 1011.05 1011.13 1011.12 1011.07 1011.01 1010.98 1010.99 1011.06 1011.15 1011.25 1011.31 1011.34 1011.33 1011.32 1011.35 1011.43 1011.58 1011.79 1012.02 1012.24 1012.38 1012.42 1012.36 1012.21 1012.01 1011.82 1011.68 1011.62 1011.65 1011.76 1011.90 1012.06 1012.19 1012.30 1012.39 1012.48 1012.59
1010.00 1010.08 1010.26 1010.51 1010.75 1010.93 1011.03 1011.04 1010.97 1010.88 1010.80 1010.78 1010.82 1010.90 1011.01 1011.10 1011.15 1011.15 1011.11 1011.08 1011.08 1011.15 1011.30 1011.52 1011.77 1012.00 1012.16 1012.22 1012.17 1012.04 1011.85 1011.67 1011.55 1011.51 1011.56 1011.69 1011.86 1012.03 1012.18 1012.30 1012.39 1012.47 1012.56
1010.07 1010.21 1010.42 1010.66 1010.87 1010.99 1011.02 1010.96 1010.84 1010.72 1010.64 1010.62 1010.68 1010.78 1010.90 1010.98 1011.01 1010.98 1010.91 1010.83 1010.80 1010.84 1010.97 1011.18 1011.43 1011.67 1011.85 1011.94 1011.92 1011.82 1011.67 1011.53 1011.44 1011.42 1011.50 1011.64 1011.83 1012.02 1012.18 1012.31 1012.40 1012.47 1012.55
1010.16 1010.35 1010.59 1010.82 1010.99 1011.05 1011.02 1010.90 1010.75 1010.62 1010.54 1010.54 1010.62 1010.74 1010.86 1010.93 1010.94 1010.87 1010.75 1010.62 1010.54 1010.53 1010.63 1010.81 1011.04 1011.29 1011.49 1011.61 1011.64 1011.60 1011.50 1011.41 1011.36 1011.38 1011.47 1011.62 1011.81 1012.00 1012.17 1012.30 1012.40 1012.47 1012.55
1010.23 1010.47 1010.73 1010.95 1011.08 1011.10 1011.03 1010.88 1010.72 1010.58 1010.52 1010.55 1010.65 1010.78 1010.90 1010.96 1010.94 1010.84 1010.67 1010.50 1010.36 1010.29 1010.33 1010.47 1010.68 1010.91 1011.13 1011.29 1011.38 1011.40 1011.37 1011.34 1011.33 1011.37 1011.47 1011.61 1011.78 1011.96 1012.12 1012.25 1012.36 1012.45 1012.55
1010.25 1010.54 1010.82 1011.03 1011.14 1011.14 1011.04 1010.89 1010.74 1010.62 1010.59 1010.64 1010.76 1010.90 1011.02 1011.07 1011.03 1010.90 1010.70 1010.47 1010.28 1010.16 1010.14 1010.23 1010.39 1010.61 1010.83 1011.03 1011.17 1011.25 1011.30 1011.32 1011.35 1011.40 1011.49 1011.60 1011.74 1011.88 1012.01 1012.14 1012.26 1012.37 1012.50
1010.23 1010.56 1010.84 1011.05 1011.15 1011.15 1011.06 1010.93 1010.81 1010.72 1010.72 1010.79 1010.92 1011.07 1011.18 1011.23 1011.18 1011.03 1010.82 1010.57 1010.33 1010.16 1010.09 1010.11 1010.23 1010.41 1010.63 1010.84 1011.03 1011.17 1011.27 1011.34 1011.40 1011.45 1011.50 1011.57 1011.65 1011.74 1011.84 1011.95 1012.07 1012.21 1012.38
1010.16 1010.51 1010.80 1011.01 1011.12 1011.14 1011.09 1011.00 1010.91 1010.87 1010.89 1010.98 1011.11 1011.25 1011.36 1011.40 1011.36 1011.22 1011.01 1010.75 1010.50 1010.30 1010.17 1010.13 1010.19 1010.33 1010.52 1010.74 1010.95 1011.13 1011.27 1011.38 1011.44 1011.48 1011.49 1011.50 1011.52 1011.55 1011.60 1011.69 1011.81 1011.98 1012.18
1010.06 1010.41 1010.71 1010.93 1011.07 1011.12 1011.12 1011.09 1011.05 1011.05 1011.09 1011.17 1011.29 1011.41 1011.51 1011.55 1011.52 1011.41 1011.22 1010.99 1010.75 1010.52 1010.36 1010.27 1010.26 1010.35 1010.49 1010.69 1010.90 1011.10 1011.26 1011.39 1011.45 1011.47 1011.44 1011.39 1011.34 1011.30 1011.31 1011.37 1011.49 1011.68 1011.92
1009.93 1010.28 1010.58 1010.82 1010.99 1011.11 1011.17 1011.20 1011.22 1011.25 1011.29 1011.36 1011.45 1011.54 1011.62 1011.66 1011.64 1011.57 1011.43 1011.24 1011.02 1010.80 1010.61 1010.47 1010.40 1010.42 1010.51 1010.66 1010.85 1011.05 1011.22 1011.35 1011.41 1011.40 1011.34 1011.23 1011.12 1011.03 1010.99 1011.03 1011.15 1011.35 1011.61
1009.79 1010.13 1010.43 1010.70 1010.92 1011.10 1011.23 1011.33 1011.40 1011.45 1011.49 1011.53 1011.58 1011.63 1011.67 1011.71 1011.71 1011.68 1011.60 1011.47 1011.29 1011.09 1010.89 1010.71 1010.58 1010.52 1010.55 1010.64 1010.79 1010.97 1011.13 1011.26 1011.31 1011.29 1011.20 1011.06 1010.90 1010.77 1010.69 1010.70 1010.81 1011.01 1011.29
1009.65 1009.97 1010.28 1010.58 1010.85 1011.10 1011.31 1011.48 1011.60 1011.67 1011.70 1011.70 1011.69 1011.69 1011.70 1011.72 1011.74 1011.75 1011.73 1011.66 1011.54 1011.36 1011.16 1010.96 1010.78 1010.65 1010.60 1010.64 1010.74 1010.88 1011.02 1011.14 1011.19 1011.16 1011.05 1010.89 1010.70 1010.54 1010.43 1010.42 1010.51 1010.70 1010.97
1009.50 1009.82 1010.14 1010.46 1010.79 1011.11 1011.40 1011.63 1011.79 1011.88 1011.89 1011.86 1011.80 1011.74 1011.72 1011.72 1011.75 1011.80 1011.83 1011.82 1011.75 1011.62 1011.43 1011.20 1010.98 1010.80 1010.69 1010.66 1010.71 1010.81 1010.93 1011.03 1011.08 1011.05 1010.94 1010.77 1010.57 1010.39 1010.26 1010.21 1010.27 1010.44 1010.69
1009.35 1009.67 1010.00 1010.36 1010.74 1011.12 1011.47 1011.76 1011.96 1012.07 1012.08 1012.01 1011.92 1011.82 1011.76 1011.74 1011.78 1011.85 1011.93 1011.97 1011.95 1011.85 1011.68 1011.45 1011.21 1010.98 1010.82 1010.74 1010.74 1010.80 1010.89 1010.98 1011.03 1011.00 1010.90 1010.73 1010.52 1010.32 1010.17 1010.09 1010.11 1010.23 1010.43
1009.20 1009.53 1009.88 1010.26 1010.68 1011.10 1011.50 1011.84 1012.08 1012.21 1012.23 1012.16 1012.04 1011.92 1011.83 1011.80 1011.84 1011.92 1012.03 1012.10 1012.12 1012.06 1011.92 1011.70 1011.45 1011.21 1011.02 1010.90 1010.86 1010.89 1010.96 1011.03 1011.07 1011.05 1010.96 1010.79 1010.58 1010.37 1010.18 1010.06 1010.02 1010.07 1010.21
1009.07 1009.41 1009.77 1010.16 1010.60 1011.04 1011.47 1011.84 1012.12 1012.28 1012.32 1012.26 1012.15 1012.02 1011.93 1011.89 1011.92 1012.01 1012.12 1012.23 1012.27 1012.25 1012.13 1011.94 1011.71 1011.48 1011.27 1011.14 1011.07 1011.08 1011.13 1011.20 1011.24 1011.22 1011.13 1010.97 1010.76 1010.52 1010.30 1010.12 1010.00 1009.97 1010.02
1008.97 1009.32 1009.68 1010.07 1010.50 1010.94 1011.37 1011.75 1012.05 1012.25 1012.32 1012.30 1012.22 1012.11 1012.02 1011.98 1012.01 1012.09 1012.20 1012.31 1012.38 1012.38 1012.30 1012.15 1011.95 1011.74 1011.55 1011.42 1011.35 1011.35 1011.39 1011.45 1011.49 1011.48 1011.40 1011.24 1011.03 1010.78 1010.51 1010.27 1010.07 1009.94 1009.89
1008.91 1009.27 1009.62 1009.98 1010.37 1010.78 1011.19 1011.56 1011.88 1012.10 1012.22 1012.25 1012.21 1012.14 1012.07 1012.04 1012.06 1012.13 1012.23 1012.34 1012.41 1012.43 1012.38 1012.28 1012.12 1011.96 1011.80 1011.69 1011.64 1011.65 1011.69 1011.75 1011.79 1011.79 1011.73 1011.59 1011.38 1011.11 1010.81 1010.51 1010.23 1009.99 1009.83
Thickness
5785 5784 5781 5778 5776 5774 5772 5771 5769 5768 5767 5766 5765 5764 5764 5763 5763 5762 5762 5762 5762 5762 5762 5763 5763 5763 5764 5765 5765 5766 5766 5767 5767 5768 5768 5768 5769 5769 5769 5769 5769 5769 5769
5785 5781 5778 5775 5773 5771 5769 5767 5765 5764 5763 5762 5761 5760 5760 5760 5759 5759 5759 5759 5759 5759 5759 5760 5760 5761 5761 5762 5762 5763 5764 5764 5765 5766 5766 5767 5767 5767 5767 5767 5767 5767 5767
5783 5778 5774 5771 5769 5767 5765 5763 5762 5760 5759 5758 5757 5756 5756 5756 5756 5755 5755 5756 5756 5756 5756 5757 5758 5758 5759 5760 5760 5761 5761 5762 5763 5764 5765 5765 5765 5765 5765 5765 5765 5766 5766
5780 5775 5770 5767 5765 5763 5761 5759 5758 5757 5755 5755 5753 5752 5752 5751 5751 5751 5752 5752 5753 5753 5754 5754 5755 5756 5757 5757 5758 5758 5759 5760 5761 5763 5765 5765 5765 5764 5764 5764 5764 5764 5764
5776 5771 5766 5763 5761 5758 5757 5755 5754 5753 5752 5751 5750 5749 5748 5748 5748 5748 5748 5748 5749 5750 5751 5752 5752 5753 5754 5755 5756 5756 5757 5758 5759 5761 5763 5764 5763 5763 5762 5762 5762 5762 5762
5771 5767 5762 5759 5757 5754 5753 5751 5750 5749 5748 5747 5746 5745 5744 5744 5744 5745 5744 5745 5746 5747 5748 5749 5750 5750 5751 5753 5753 5754 5754 5756 5758 5760 5762 5762 5761 5761 5761 5761 5760 5761 5761
5768 5764 5759 5756 5753 5751 5749 5747 5746 5744 5743 5742 5741 5741 5740 5740 5740 5741 5741 5742 5742 5744 5745 5746 5747 5748 5749 5750 5751 5752 5753 5754 5756 5759 5761 5761 5760 5759 5759 5759 5759 5759 5759
5765 5762 5756 5753 5751 5749 5746 5744 5742 5740 5739 5738 5737 5736 5736 5736 5736 5737 5738 5738 5739 5741 5742 5742 5744 5745 5747 5748 5749 5750 5751 5752 5756 5759 5760 5760 5759 5758 5758 5758 5758 5758 5758
5762 5759 5755 5751 5748 5745 5743 5740 5738 5737 5735 5734 5733 5732 5732 5732 5732 5733 5734 5734 5735 5737 5739 5739 5741 5742 5744 5746 5747 5748 5749 5751 5753 5757 5759 5759 5758 5757 5757 5757 5756 5756 5756
5758 5756 5753 5750 5747 5744 5740 5738 5736 5734 5732 5731 5730 5729 5729 5729 5729 5730 5731 5731 5732 5734 5735 5736 5738 5740 5742 5744 5745 5746 5748 5749 5752 5755 5757 5757 5757 5756 5756 5755 5755 5755 5755
5754 5753 5751 5749 5745 5742 5740 5736 5733 5731 5729 5728 5727 5725 5725 5725 5726 5727 5727 5728 5729 5730 5732 5733 5735 5737 5740 5741 5743 5744 5745 5748 5752 5755 5756 5756 5756 5755 5754 5754 5754 5754 5754
5749 5750 5749 5746 5744 5741 5738 5735 5732 5729 5726 5725 5724 5723 5722 5722 5723 5724 5723 5724 5724 5725 5727 5729 5731 5734 5736 5739 5741 5742 5744 5747 5750 5754 5755 5755 5754 5754 5753 5753 5753 5753 5753
5749 5747 5746 5744 5742 5738 5735 5732 5728 5726 5724 5722 5721 5720 5719 5718 5718 5718 5719 5719 5720 5721 5722 5725 5728 5730 5733 5736 5739 5740 5743 5747 5750 5752 5753 5753 5753 5753 5752 5752 5752 5752 5753
5747 5744 5744 5742 5739 5736 5732 5728 5726 5723 5721 5719 5717 5715 5714 5713 5712 5713 5714 5715 5715 5717 5719 5721 5723 5727 5730 5734 5737 5739 5742 5745 5748 5749 5750 5751 5751 5752 5751 5751 5751 5751 5752
5746 5744 5742 5739 5736 5733 5729 5726 5724 5720 5717 5715 5713 5711 5710 5707 5706 5707 5708 5710 5711 5712 5714 5716 5719 5722 5725 5730 5733 5736 5738 5742 5745 5747 5748 5748 5749 5750 5750 5750 5750 5751 5751
5746 5743 5740 5737 5733 5730 5727 5723 5721 5717 5715 5712 5709 5707 5705 5704 5702 5702 5702 5704 5706 5708 5710 5712 5714 5717 5720 5724 5728 5732 5735 5739 5742 5744 5745 5746 5747 5748 5749 5749 5750 5750 5751
5746 5743 5738 5735 5732 5727 5723 5720 5718 5715 5712 5709 5706 5703 5701 5699 5698 5697 5697 5698 5700 5702 5705 5707 5709 5711 5714 5718 5721 5726 5730 5734 5738 5741 5743 5744 5745 5746 5747 5748 5749 5750 5750
5746 5741 5737 5735 5729 5725 5721 5717 5715 5713 5709 5705 5702 5699 5697 5695 5693 5692 5691 5692 5695 5697 5699 5700 5702 5703 5706 5710 5714 5719 5725 5730 5734 5737 5741 5744 5744 5745 5746 5747 5748 5749 5749
5745 5741 5736 5732 5727 5723 5719 5716 5713 5710 5706 5703 5699 5695 5692 5690 5689 5687 5687 5688 5690 5691 5692 5694 5696 5698 5699 5703 5708 5713 5718 5724 5729 5733 5737 5741 5744 5745 5746 5746 5747 5747 5748
5745 5741 5735 5730 5726 5722 5718 5714 5710 5706 5703 5700 5696 5692 5689 5687 5685 5684 5684 5684 5685 5685 5685 5688 5689 5693 5695 5698 5703 5708 5712 5719 5724 5728 5733 5737 5741 5744 5745 5745 5744 5745 5746
5744 5739 5734 5730 5725 5720 5714 5709 5704 5700 5699 5696 5694 5690 5687 5684 5682 5681 5680 5680 5680 5680 5680 5683 5684 5685 5688 5693 5694 5697 5705 5713 5718 5723 5728 5732 5737 5740 5742 5743 5743 5744 5744
5742 5738 5734 5729 5725 5719 5713 5709 5705 5701 5698 5695 5693 5689 5686 5683 5680 5679 5677 5676 5676 5676 5677 5678 5679 5680 5683 5688 5688 5688 5691 5699 5708 5718 5723 5727 5732 5736 5738 5739 5741 5743 5744
5741 5738 5734 5729 5724 5719 5714 5709 5704 5700 5696 5693 5689 5686 5684 5682 5679 5677 5675 5674 5674 5674 5674 5675 5676 5676 5676 5681 5686 5684 5684 5686 5696 5708 5716 5721 5725 5729 5732 5736 5738 5741 5743
5743 5740 5735 5730 5725 5720 5715 5708 5701 5696 5691 5690 5688 5685 5684 5681 5679 5676 5674 5673 5672 5672 5672 5673 5675 5674 5674 5674 5679 5684 5687 5690 5689 5693 5705 5714 5719 5723 5727 5731 5735 5738 5740
5745 5739 5734 5730 5724 5719 5714 5708 5702 5697 5693 5691 5688 5685 5682 5680 5678 5675 5673 5672 5671 5671 5671 5672 5672 5673 5673 5673 5674 5678 5682 5686 5689 5689 5691 5701 5709 5716 5722 5726 5729 5732 5735
5743 5737 5732 5727 5722 5718 5713 5709 5704 5698 5694 5690 5686 5683 5681 5679 5677 5675 5673 5671 5670 5670 5670 5670 5671 5672 5672 5673 5674 5676 5677 5679 5682 5686 5688 5692 5698 5707 5715 5720 5723 5726 5729